{"data":{"norad_id":57462,"intl_designator":"2023-107F","name":"STARLINK-30088","alt_names":[],"object_type":"PAYLOAD","status":"ACTIVE","operator":null,"country":"US","launch_date":"2023-07-28","launch_site_code":"AFETR","launch_vehicle":null,"mission":null,"orbit_class":"UNKNOWN","rcs_meters":null,"size_class":null,"mass_kg":null,"dimensions":null,"purposes":["comms"],"wikipedia_slug":null,"has_3d_model":false,"image_url":null,"decayed_at":null,"tle_current":{"epoch":"2026-05-25T01:23:59.568576Z","epoch_age_seconds":80742,"freshness":"FRESH","line1":"1 57462U 23107F   26145.05832834  .00000844  00000+0  40195-4 0  9996","line2":"2 57462  42.9966 265.0813 0000856  94.6952 265.3998 15.27578130156824","mean_motion":15.2757813,"eccentricity":8.56e-5,"inclination_deg":42.9966,"raan_deg":265.0813,"arg_perigee_deg":94.6952,"mean_anomaly_deg":265.3998,"bstar":4.0195e-5,"rev_number":15682,"period_min":94.266864111232,"perigee_km":482.46737748896,"apogee_km":483.64201350723,"semimajor_km":6861.1916954981,"source":"CELESTRAK","updated_at":"2026-05-25T13:38:18.324099Z"}}}